Waarnemingen

Advertentie
Mijn weer
Åsele, Zweden (2254): temperatuur & dauwpunt: 14.01.2018 00:00:00 - 20.01.2018 00:00:00 (CET)Åsele, Zweden (2254): windsnelheid & windstoten: 14.01.2018 00:00:00 - 20.01.2018 00:00:00 (CET)Åsele, Zweden (2254): windrichting: 14.01.2018 00:00:00 - 20.01.2018 00:00:00 (CET)Åsele, Zweden (2254): luchtdruk: 14.01.2018 00:00:00 - 20.01.2018 00:00:00 (CET)Åsele, Zweden (2254): zicht: 14.01.2018 00:00:00 - 20.01.2018 00:00:00 (CET)Åsele, Zweden (2254): neerslag: 14.01.2018 00:00:00 - 20.01.2018 00:00:00 (CET)
Datum & Tijd tt [°C] td [°C] ff [km/u] ff [kn] fx [km/u] fx [kn] dd ppp [hPa] vv [km] rr [mm]
20.01.2018 00:00:00 - - - - - - - - - -
19.01.2018 23:00:00 -9,9 -11,4 3 2 7 4 O 1006,9 6 0,2
19.01.2018 22:00:00 -10,8 -12,1 0 0 11 6 N 1006,9 1,2 0,1
19.01.2018 21:00:00 -10,9 -12,4 5 3 9 5 O 1006,7 3,8 0,1
19.01.2018 20:00:00 -11,5 -12,9 2 1 6 3 O 1006,6 1,8 0,1
19.01.2018 19:00:00 -11,9 -13,3 3 2 7 4 ONO 1006,5 7 0,0
19.01.2018 18:00:00 -13,7 -15,0 0 0 4 2 N 1006,4 4,8 0,0
19.01.2018 17:00:00 -14,7 -16,4 0 0 3 2 N 1006,5 1,6 0,1
19.01.2018 16:00:00 -15,8 -17,5 0 0 4 2 N 1006,3 3,0 0,0
19.01.2018 15:00:00 -17,1 -18,9 0 0 2 1 N 1005,9 10 0,0
19.01.2018 14:00:00 -17,2 -18,8 0 0 3 1 N 1005,6 7 0,0
19.01.2018 13:00:00 -17,8 -19,4 0 0 6 3 N 1005,3 11 0,0
19.01.2018 12:00:00 -16,1 -18,2 0 0 3 2 N 1005,2 6 0,0
19.01.2018 11:00:00 -17,3 -19,2 0 0 3 2 N 1005,1 13 0,1
19.01.2018 10:00:00 -19,0 -20,9 0 0 3 1 N 1004,9 36 0,0
19.01.2018 09:00:00 -20,1 -22,1 0 0 2 1 N 1004,4 31 0,4
19.01.2018 08:00:00 -21,3 -23,4 0 0 2 1 N 1004,0 34 0,0
19.01.2018 07:00:00 -22,1 -24,5 0 0 4 2 N 1003,6 18 0,0
19.01.2018 06:00:00 -20,5 -22,8 0 0 1 1 N 1002,9 22 0,0
19.01.2018 05:00:00 -17,9 -19,9 0 0 4 2 N 1002,5 3,1 0,0
19.01.2018 04:00:00 -15,5 -17,2 2 1 4 2 NW 1002,2 1,7 0,0
19.01.2018 03:00:00 -14,4 -16,1 0 0 4 2 N 1002,0 2,1 0,0
19.01.2018 02:00:00 -13,4 -15,1 0 0 3 2 N 1001,8 4,6 0,1
19.01.2018 01:00:00 -12,1 -13,5 0 0 3 1 N 1001,4 3,5 0,0
19.01.2018 00:00:00 -12,1 -13,5 0 0 4 2 N 1001,2 2,5 0,0
18.01.2018 23:00:00 -12,1 -13,4 0 0 3 2 N 1001,3 3,6 0,0
18.01.2018 22:00:00 -12,4 -13,8 0 0 3 2 N 1001,2 4,8 0,0
18.01.2018 21:00:00 -12,2 -13,5 0 0 2 1 N 1001,1 4,7 0,0
18.01.2018 20:00:00 -13,5 -14,8 0 0 3 2 N 1000,9 2,7 0,1
18.01.2018 19:00:00 -14,3 -15,8 0 0 2 1 N 1000,8 4,6 0,2
18.01.2018 18:00:00 -15,6 -17,1 0 0 2 1 N 1000,8 1,5 0,0
18.01.2018 17:00:00 -14,4 -15,9 0 0 4 2 N 1000,6 4,6 0,0
18.01.2018 16:00:00 -13,6 -15,2 3 1 3 2 WNW 1000,4 2,0 0,0
18.01.2018 15:00:00 -12,6 -14,3 0 0 8 4 N 1000,4 1,3 0,1
18.01.2018 14:00:00 -11,2 -12,8 4 2 11 6 NNO 1000,2 3,7 0,2
18.01.2018 13:00:00 -11,9 -13,2 2 1 6 3 NO 1000,2 1,4 0,0
18.01.2018 12:00:00 -12,8 -14,2 0 0 8 4 N 1000,5 1,2 0,0
18.01.2018 11:00:00 -11,6 -13,3 3 2 10 5 NO 1000,5 3,5 0,0
18.01.2018 10:00:00 -11,8 -13,4 4 2 9 5 NO 1000,6 3,5 0,0
18.01.2018 09:00:00 -12,1 -13,7 6 3 16 9 ONO 1000,6 7 0,0
18.01.2018 08:00:00 -14,5 -15,9 0 0 6 4 N 1001,0 4,9 0,1
18.01.2018 07:00:00 -15,9 -17,4 0 0 4 2 N 1000,9 2,0 0,1
18.01.2018 06:00:00 -17,6 -19,2 0 0 4 2 N 1001,0 3,1 0,1
18.01.2018 05:00:00 -17,7 -19,2 0 0 5 3 N 1001,2 21 0,0
18.01.2018 04:00:00 -16,9 -18,7 2 1 6 3 N 1001,2 15 0,0
18.01.2018 03:00:00 -13,4 -15,2 3 1 10 6 NNO 1000,9 23 0,0
18.01.2018 02:00:00 -12,5 -14,5 4 2 10 5 NO 1000,9 27 0,0
18.01.2018 01:00:00 -11,9 -13,6 4 2 12 6 ONO 1000,8 28 0,0
18.01.2018 00:00:00 -11,5 -12,9 6 3 11 6 O 1000,6 34 0,0
17.01.2018 23:00:00 -16,6 -18,3 2 1 9 5 O 1000,9 37 0,0
17.01.2018 22:00:00 -17,0 -18,6 4 2 12 6 O 1000,8 41 0,0
17.01.2018 21:00:00 -14,7 -15,3 3 2 8 5 O 1000,2 36 0,0
17.01.2018 20:00:00 -15,7 -17,6 0 0 9 5 N 1000,4 35 0,0
17.01.2018 19:00:00 -13,3 -14,9 3 2 23 12 NO 999,8 8 0,0
17.01.2018 18:00:00 -12,2 -13,2 3 2 9 5 OZO 999,9 25 0,0
17.01.2018 17:00:00 -12,8 -14,6 0 0 13 7 N 999,7 3,5 0,0
17.01.2018 16:00:00 -10,2 -12,5 6 4 16 9 O 999,3 19 0,0
17.01.2018 15:00:00 -10,2 -12,1 8 5 17 9 ONO 998,9 10 0,0
17.01.2018 14:00:00 -9,8 -12,1 7 4 13 7 NO 999,0 21 0,1
17.01.2018 13:00:00 -10,0 -12,0 6 3 14 8 ONO 998,9 4,4 0,0
17.01.2018 12:00:00 -9,5 -11,8 7 4 25 14 O 998,8 4,6 0,0
17.01.2018 11:00:00 -8,8 -11,0 11 6 25 14 O 998,3 3,9 0,1
17.01.2018 10:00:00 -8,3 -10,2 13 7 22 12 ONO 998,1 4,1 0,1
17.01.2018 09:00:00 -7,3 -9,8 15 8 29 16 O 997,4 11 0,0
17.01.2018 08:00:00 -6,8 -8,7 13 7 30 16 OZO 996,6 16 0,0
17.01.2018 07:00:00 -6,3 -7,8 16 9 42 23 OZO 995,8 4,8 0,0
17.01.2018 06:00:00 -5,7 -6,9 17 9 39 21 OZO 994,9 4,2 0,1
17.01.2018 05:00:00 -5,1 -6,3 16 9 37 20 OZO 994,6 5 0,0
17.01.2018 04:00:00 -4,8 -6,3 13 7 29 16 OZO 993,9 2,5 0,2
17.01.2018 03:00:00 -4,5 -6,3 15 8 37 20 OZO 993,5 4,5 0,0
17.01.2018 02:00:00 -4,3 -6,3 18 10 36 19 OZO 993,0 4,5 0,0
17.01.2018 01:00:00 -4,4 -5,9 18 10 35 19 OZO 992,6 3,1 0,2
17.01.2018 00:00:00 -4,7 -6,2 19 11 35 19 OZO 992,6 1,8 0,2
16.01.2018 23:00:00 -4,4 -6,4 13 7 35 19 OZO 992,3 7 0,1
16.01.2018 22:00:00 -4,7 -6,2 14 7 35 19 OZO 991,8 4,1 0,0
16.01.2018 21:00:00 -5,2 -6,7 20 11 42 23 OZO 991,9 3,4 0,1
16.01.2018 20:00:00 -5,0 -7,0 17 9 34 19 OZO 992,0 - 0,1
16.01.2018 19:00:00 -4,8 -6,3 21 11 48 26 OZO 992,0 2,6 0,1
16.01.2018 18:00:00 -3,9 -5,6 21 11 48 26 OZO 991,4 2,3 0,2
16.01.2018 17:00:00 -3,8 -5,5 19 10 47 25 OZO 991,3 2,3 0,1
16.01.2018 16:00:00 -3,7 -5,5 21 12 41 22 OZO 991,6 6 0,0
16.01.2018 15:00:00 -3,6 -5,4 17 9 34 18 OZO 992,1 6 0,0
16.01.2018 14:00:00 -3,4 -5,6 21 11 42 23 OZO 992,3 3,2 0,1
16.01.2018 13:00:00 -2,9 -4,8 13 7 34 19 ZO 992,6 8 0,1
16.01.2018 12:00:00 -3,4 -4,8 19 11 53 29 ZO 993,4 3,3 0,1
16.01.2018 11:00:00 -3,4 -5,0 19 10 44 24 ZO 993,7 4,7 0,0
16.01.2018 10:00:00 -3,4 -4,7 17 9 51 28 ZO 994,2 3,4 0,3
16.01.2018 09:00:00 -3,2 -4,5 19 10 50 27 ZO 994,3 1,7 0,0
16.01.2018 08:00:00 -2,8 -4,4 16 8 49 26 ZO 994,0 3,5 0,2
16.01.2018 07:00:00 -2,7 -4,3 17 9 45 25 ZO 994,1 3,1 0,1
16.01.2018 06:00:00 -2,6 -4,2 17 9 45 24 ZO 994,7 4,5 0,1
16.01.2018 05:00:00 -2,7 -4,0 14 8 41 22 ZO 995,4 2,7 0,7
16.01.2018 04:00:00 -2,9 -4,3 17 9 42 23 ZO 996,4 1,8 0,4
16.01.2018 03:00:00 -2,9 -5,5 16 9 44 24 ZZO 997,7 14 0,0
16.01.2018 02:00:00 -3,4 -5,9 18 10 49 26 ZZO 998,8 11 0,0
16.01.2018 01:00:00 -3,6 -5,8 14 8 41 22 ZZO 999,8 11 0,0
16.01.2018 00:00:00 -3,5 -5,8 13 7 49 26 ZO 1000,4 14 0,0
15.01.2018 23:00:00 -3,4 -5,9 17 9 42 23 ZZO 1001,3 9 0,0
15.01.2018 22:00:00 -3,5 -6,0 15 8 39 21 ZZO 1002,3 14 0,0
15.01.2018 21:00:00 -4,0 -6,0 13 7 40 22 ZZO 1003,4 11 0,0
15.01.2018 20:00:00 -4,2 -6,2 12 7 42 23 ZZO 1004,4 14 0,0
15.01.2018 19:00:00 -4,3 -6,3 15 8 42 23 ZZO 1005,5 15 0,0
15.01.2018 18:00:00 -4,2 -6,8 14 8 40 21 ZZO 1006,5 17 0,0
15.01.2018 17:00:00 -4,0 -6,9 13 7 43 23 ZZO 1007,0 14 0,0
15.01.2018 16:00:00 -3,9 -6,7 15 8 37 20 Z 1008,2 18 0,0
15.01.2018 15:00:00 -4,1 -6,4 14 7 39 21 ZZO 1008,7 14 0,0
15.01.2018 14:00:00 -4,3 -6,8 14 8 41 22 Z 1009,7 12 0,0
15.01.2018 13:00:00 -4,7 -7,3 14 8 41 22 Z 1010,7 13 0,0
15.01.2018 12:00:00 -5,1 -7,7 14 8 37 20 Z 1012,1 9 0,0
15.01.2018 11:00:00 -5,5 -7,9 14 7 38 20 Z 1012,9 8 0,0
15.01.2018 10:00:00 -5,9 -8,6 14 8 45 24 Z 1013,9 9 0,0
15.01.2018 09:00:00 -6,2 -9,1 13 7 32 18 Z 1014,4 31 0,0
15.01.2018 08:00:00 -6,4 -9,0 12 7 32 17 ZZO 1015,0 22 0,0
15.01.2018 07:00:00 -6,2 -9,1 16 8 41 22 Z 1015,2 16 0,0
15.01.2018 06:00:00 -6,0 -8,6 12 6 42 23 ZZO 1015,7 26 0,0
15.01.2018 05:00:00 -5,9 -8,3 13 7 35 19 Z 1016,5 30 0,0
15.01.2018 04:00:00 -5,9 -8,5 13 7 43 23 Z 1017,4 21 0,0
15.01.2018 03:00:00 -6,1 -8,8 13 7 35 19 Z 1018,5 10 0,0
15.01.2018 02:00:00 -6,4 -9,0 9 5 39 21 Z 1019,6 12 0,0
15.01.2018 01:00:00 -6,5 -8,6 14 7 46 25 ZZW 1020,5 10 0,0
15.01.2018 00:00:00 -6,7 -8,5 14 7 39 21 Z 1020,8 14 0,0
14.01.2018 23:00:00 -6,7 -8,5 10 6 37 20 Z 1021,5 31 0,0
14.01.2018 22:00:00 -6,8 -8,6 12 7 33 18 Z 1021,8 19 0,0
14.01.2018 21:00:00 -7,0 -8,6 11 6 35 19 Z 1022,5 26 0,0
14.01.2018 20:00:00 -7,2 -8,4 10 6 34 19 ZZO 1023,1 16 0,0
14.01.2018 19:00:00 -7,2 -8,1 7 4 34 19 ZZO 1023,9 13 0,0
14.01.2018 18:00:00 -7,2 -8,1 10 6 32 18 Z 1025,0 21 0,0
14.01.2018 17:00:00 -7,3 -8,2 14 8 30 16 Z 1025,5 13 0,0
14.01.2018 16:00:00 -7,2 -8,0 7 4 28 15 Z 1026,4 21 0,0
14.01.2018 15:00:00 -7,3 -8,1 7 4 29 16 Z 1027,2 18 0,0
14.01.2018 14:00:00 -7,4 -8,2 10 6 27 15 Z 1028,0 17 0,0
14.01.2018 13:00:00 -7,4 -8,2 10 5 22 12 ZZW 1028,6 19 0,0
14.01.2018 12:00:00 -7,5 -8,3 9 5 26 14 Z 1029,2 26 0,0
14.01.2018 11:00:00 -7,7 -8,5 10 5 24 13 ZZW 1030,1 21 0,0
14.01.2018 10:00:00 -8,2 -9,1 6 3 23 12 Z 1030,4 33 0,0
14.01.2018 09:00:00 -8,5 -9,4 7 4 22 12 ZZW 1030,7 18 0,0
14.01.2018 08:00:00 -8,7 -9,6 8 5 20 11 ZZW 1031,1 9 0,0
14.01.2018 07:00:00 -9,3 -10,4 4 2 11 6 ZZW 1031,4 7 0,1
14.01.2018 06:00:00 -10,2 -11,2 3 2 9 5 Z 1032,0 27 0,0
14.01.2018 05:00:00 -12,4 -13,7 0 0 3 2 N 1032,8 7 0,0
14.01.2018 04:00:00 -17,5 -19,3 0 0 1 1 N 1034,1 14 0,0
14.01.2018 03:00:00 -19,5 -21,5 0 0 1 0 N 1034,9 11 0,0
14.01.2018 02:00:00 -21,4 -23,5 0 0 1 1 N 1035,2 36 0,0
14.01.2018 01:00:00 -22,8 -25,0 0 0 0 0 N 1035,9 15 0,0
14.01.2018 00:00:00 -24,6 -27,1 0 0 0 0 N 1036,5 15 0,1

tt = temperatuur
td = dauwpunt
ff = windsnelheid
fx = windstoten
dd = windrichting
ppp = luchtdruk
vv = zicht
rr = neerslag

Weerstations in de omgeving